TimeMDT,TemperatureF,Dew PointF,Humidity,Sea Level PressureIn,VisibilityMPH,Wind Direction,Wind SpeedMPH,Gust SpeedMPH,PrecipitationIn,Events,Conditions,WindDirDegrees,DateUTC
12:15 AM,62.6,53.6,72,30.32,10.0,Calm,Calm,-,N/A,,Clear,0,2013-08-02 06:15:00
12:35 AM,62.6,53.6,72,30.31,10.0,Calm,Calm,-,N/A,,Clear,0,2013-08-02 06:35:00
12:55 AM,62.6,53.6,72,30.32,10.0,WSW,3.5,-,N/A,,Clear,250,2013-08-02 06:55:00
1:15 AM,60.8,53.6,77,30.31,10.0,SW,4.6,-,N/A,,Clear,220,2013-08-02 07:15:00
1:35 AM,59.0,53.6,82,30.31,10.0,SSW,4.6,-,N/A,,Clear,210,2013-08-02 07:35:00
1:55 AM,62.6,51.8,68,30.30,10.0,SSW,4.6,-,N/A,,Clear,200,2013-08-02 07:55:00
2:15 AM,59.0,53.6,82,30.30,10.0,South,5.8,-,N/A,,Clear,190,2013-08-02 08:15:00
2:35 AM,59.0,51.8,77,30.29,10.0,SW,5.8,-,N/A,,Clear,220,2013-08-02 08:35:00
2:55 AM,59.0,51.8,77,30.29,10.0,SW,4.6,-,N/A,,Clear,230,2013-08-02 08:55:00
4:15 AM,59.0,50.0,72,30.28,10.0,West,5.8,-,N/A,,Clear,270,2013-08-02 10:15:00
4:55 AM,59.0,50.0,72,30.28,10.0,NW,3.5,-,N/A,,Clear,320,2013-08-02 10:55:00
5:15 AM,59.0,48.2,67,30.27,10.0,West,4.6,-,N/A,,Clear,280,2013-08-02 11:15:00
5:35 AM,59.0,48.2,67,30.27,10.0,WSW,4.6,-,N/A,,Clear,250,2013-08-02 11:35:00
5:55 AM,57.2,48.2,72,30.27,10.0,NNW,3.5,-,N/A,,Clear,330,2013-08-02 11:55:00
6:35 AM,57.2,48.2,72,30.28,10.0,WSW,3.5,-,N/A,,Clear,240,2013-08-02 12:35:00
6:55 AM,59.0,48.2,67,30.29,10.0,NW,3.5,-,N/A,,Clear,310,2013-08-02 12:55:00
7:15 AM,62.6,50.0,63,30.29,10.0,West,3.5,-,N/A,,Clear,270,2013-08-02 13:15:00
7:35 AM,62.6,50.0,63,30.30,10.0,WNW,4.6,-,N/A,,Clear,300,2013-08-02 13:35:00
7:55 AM,64.4,53.6,68,30.30,10.0,Calm,Calm,-,N/A,,Clear,0,2013-08-02 13:55:00
8:15 AM,66.2,55.4,68,30.31,10.0,Calm,Calm,-,N/A,,Clear,0,2013-08-02 14:15:00
8:35 AM,68.0,55.4,64,30.31,10.0,Calm,Calm,-,N/A,,Clear,0,2013-08-02 14:35:00
8:55 AM,69.8,55.4,60,30.31,10.0,NE,3.5,-,N/A,,Clear,50,2013-08-02 14:55:00
9:15 AM,71.6,50.0,46,30.31,10.0,NE,3.5,-,N/A,,Clear,40,2013-08-02 15:15:00
9:35 AM,71.6,50.0,46,30.32,10.0,NNE,3.5,-,N/A,,Clear,20,2013-08-02 15:35:00
9:55 AM,73.4,50.0,44,30.32,10.0,NE,3.5,-,N/A,,Clear,50,2013-08-02 15:55:00
10:15 AM,73.4,50.0,44,30.32,10.0,ENE,4.6,-,N/A,,Clear,70,2013-08-02 16:15:00
10:35 AM,75.2,50.0,41,30.32,10.0,West,3.5,-,N/A,,Clear,280,2013-08-02 16:35:00
10:55 AM,77.0,50.0,39,30.32,10.0,ENE,3.5,-,N/A,,Clear,60,2013-08-02 16:55:00
11:15 AM,77.0,48.2,36,30.32,10.0,ESE,3.5,-,N/A,,Clear,120,2013-08-02 17:15:00
11:35 AM,77.0,48.2,36,30.32,10.0,NE,4.6,-,N/A,,Clear,40,2013-08-02 17:35:00
11:55 AM,78.8,50.0,36,30.31,10.0,NNE,5.8,-,N/A,,Clear,20,2013-08-02 17:55:00
12:15 PM,78.8,50.0,36,30.31,10.0,North,8.1,-,N/A,,Partly Cloudy,350,2013-08-02 18:15:00
12:35 PM,78.8,51.8,39,30.30,10.0,NW,9.2,17.3,N/A,,Clear,320,2013-08-02 18:35:00
12:55 PM,77.0,50.0,39,30.30,10.0,North,8.1,-,N/A,,Scattered Clouds,350,2013-08-02 18:55:00
1:15 PM,77.0,51.8,41,30.30,9.0,WNW,6.9,-,N/A,Rain,Light Rain,300,2013-08-02 19:15:00
1:35 PM,80.6,50.0,34,30.29,10.0,NNE,8.1,-,N/A,,Clear,20,2013-08-02 19:35:00
1:55 PM,80.6,51.8,37,30.28,10.0,NNW,5.8,-,N/A,,Partly Cloudy,330,2013-08-02 19:55:00
2:15 PM,78.8,50.0,36,30.27,10.0,West,6.9,-,N/A,,Scattered Clouds,280,2013-08-02 20:15:00
2:35 PM,80.6,51.8,37,30.26,10.0,WSW,9.2,-,N/A,,Partly Cloudy,240,2013-08-02 20:35:00
2:55 PM,80.6,50.0,34,30.26,10.0,SSW,3.5,-,N/A,,Clear,200,2013-08-02 20:55:00
3:15 PM,82.4,51.8,35,30.25,10.0,WNW,5.8,-,N/A,,Clear,290,2013-08-02 21:15:00
3:35 PM,80.6,50.0,34,30.25,10.0,North,13.8,17.3,N/A,,Partly Cloudy,350,2013-08-02 21:35:00
3:55 PM,80.6,50.0,34,30.24,10.0,NNW,13.8,18.4,N/A,,Clear,330,2013-08-02 21:55:00
4:15 PM,80.6,50.0,34,30.24,10.0,North,12.7,-,N/A,,Partly Cloudy,350,2013-08-02 22:15:00
4:35 PM,82.4,50.0,32,30.23,10.0,NW,9.2,16.1,N/A,,Scattered Clouds,320,2013-08-02 22:35:00
4:55 PM,82.4,50.0,32,30.23,10.0,North,8.1,-,N/A,,Partly Cloudy,360,2013-08-02 22:55:00
5:15 PM,82.4,50.0,32,30.23,10.0,NW,5.8,-,N/A,,Clear,310,2013-08-02 23:15:00
5:35 PM,80.6,50.0,34,30.23,10.0,North,9.2,-,N/A,Thunderstorm,Clear,360,2013-08-02 23:35:00
5:55 PM,80.6,48.2,32,30.23,10.0,NE,6.9,-,N/A,,Scattered Clouds,50,2013-08-02 23:55:00
6:55 PM,75.2,53.6,47,30.23,10.0,SSE,8.1,-,N/A,,Mostly Cloudy,150,2013-08-03 00:55:00
7:15 PM,75.2,53.6,47,30.24,10.0,SE,5.8,-,N/A,,Overcast,140,2013-08-03 01:15:00
7:35 PM,75.2,53.6,47,30.24,10.0,SSE,6.9,-,N/A,,Overcast,160,2013-08-03 01:35:00
7:55 PM,73.4,55.4,53,30.25,10.0,SE,8.1,-,N/A,,Mostly Cloudy,140,2013-08-03 01:55:00
8:15 PM,71.6,53.6,53,30.25,10.0,South,5.8,-,N/A,,Scattered Clouds,170,2013-08-03 02:15:00
8:35 PM,73.4,53.6,50,30.26,10.0,Calm,Calm,-,N/A,,Scattered Clouds,0,2013-08-03 02:35:00
8:55 PM,73.4,53.6,50,30.27,10.0,ENE,3.5,-,N/A,,Scattered Clouds,60,2013-08-03 02:55:00
9:15 PM,71.6,53.6,53,30.27,10.0,North,3.5,-,N/A,,Scattered Clouds,10,2013-08-03 03:15:00
9:35 PM,71.6,50.0,46,30.28,10.0,NNE,4.6,-,N/A,,Clear,30,2013-08-03 03:35:00
9:55 PM,71.6,50.0,46,30.28,10.0,ENE,5.8,-,N/A,,Clear,60,2013-08-03 03:55:00
10:15 PM,69.8,50.0,49,30.29,10.0,Calm,Calm,-,N/A,,Clear,0,2013-08-03 04:15:00
10:35 PM,69.8,50.0,49,30.28,10.0,SW,4.6,-,N/A,,Clear,220,2013-08-03 04:35:00
10:55 PM,66.2,53.6,64,30.29,10.0,WSW,8.1,-,N/A,,Clear,240,2013-08-03 04:55:00
11:15 PM,68.0,50.0,52,30.29,10.0,West,6.9,-,N/A,,Clear,270,2013-08-03 05:15:00
11:35 PM,66.2,51.8,60,30.30,10.0,WNW,11.5,17.3,N/A,,Clear,290,2013-08-03 05:35:00
11:55 PM,66.2,53.6,64,30.30,10.0,WNW,12.7,-,N/A,,Clear,290,2013-08-03 05:55:00